| time (UTC) | temp F | wind direction | speed knots | gust knots | rain 1hr in | rain 24hr in | rain mn in | humidity % | barometer mb |
| 20260505075701 | 67 | 160 | 6.1 | 7.0 | 0.00 | 0.00 | 0.00 | 85 | 1009.8 |
| 20260505075200 | 67 | 127 | 0.9 | 1.7 | 0.00 | 0.00 | 0.00 | 85 | 1009.8 |
| 20260505074701 | 67 | 170 | 3.5 | 5.2 | 0.00 | 0.00 | 0.00 | 85 | 1010.0 |
| 20260505074201 | 67 | 163 | 0.9 | 3.5 | 0.00 | 0.00 | 0.00 | 85 | 1010.0 |
| 20260505073700 | 67 | 156 | 1.7 | 3.5 | 0.00 | 0.00 | 0.00 | 85 | 1009.9 |
| 20260505073200 | 67 | 155 | 3.5 | 4.3 | 0.00 | 0.00 | 0.00 | 85 | 1009.9 |
| 20260505072701 | 67 | 176 | 0.9 | 2.6 | 0.00 | 0.00 | 0.00 | 85 | 1009.9 |
| 20260505072200 | 67 | 153 | 1.7 | 2.6 | 0.00 | 0.00 | 0.00 | 85 | 1009.9 |
| 20260505071701 | 67 | 171 | 2.6 | 4.3 | 0.00 | 0.00 | 0.00 | 84 | 1009.9 |
| 20260505071201 | 67 | 179 | 2.6 | 5.2 | 0.00 | 0.00 | 0.00 | 84 | 1009.9 |
| 20260505070700 | 67 | 170 | 1.7 | 4.3 | 0.00 | 0.00 | 0.00 | 84 | 1009.9 |
| 20260505070201 | 67 | 173 | 3.5 | 6.1 | 0.00 | 0.00 | 0.00 | 84 | 1010.0 |
| 20260505065701 | 67 | 157 | 4.3 | 5.2 | 0.00 | 0.00 | 0.00 | 84 | 1010.0 |
| 20260505065200 | 67 | 177 | 3.5 | 5.2 | 0.00 | 0.00 | 0.00 | 83 | 1010.1 |
| 20260505064700 | 67 | 188 | 1.7 | 2.6 | 0.00 | 0.00 | 0.00 | 83 | 1010.3 |
| 20260505064201 | 68 | 164 | 1.7 | 3.5 | 0.00 | 0.00 | 0.00 | 83 | 1010.4 |
| 20260505063701 | 68 | 157 | 3.5 | 5.2 | 0.00 | 0.00 | 0.00 | 83 | 1010.3 |
| 20260505063201 | 68 | 165 | 5.2 | 6.1 | 0.00 | 0.00 | 0.00 | 83 | 1010.5 |
| 20260505062701 | 68 | 169 | 5.2 | 6.1 | 0.00 | 0.00 | 0.00 | 82 | 1010.5 |
| 20260505062200 | 68 | 157 | 1.7 | 3.5 | 0.00 | 0.00 | 0.00 | 82 | 1010.4 |
| 20260505061700 | 68 | 165 | 6.1 | 8.7 | 0.00 | 0.00 | 0.00 | 82 | 1010.5 |
| 20260505061201 | 68 | 166 | 3.5 | 5.2 | 0.00 | 0.00 | 0.00 | 82 | 1010.6 |
| 20260505060700 | 68 | 161 | 4.3 | 6.1 | 0.00 | 0.00 | 0.00 | 81 | 1010.6 |
| 20260505060200 | 68 | 171 | 4.3 | 6.1 | 0.00 | 0.00 | 0.00 | 81 | 1010.7 |
| 20260505055700 | 68 | 165 | 3.5 | 6.1 | 0.00 | 0.00 | 0.00 | 81 | 1010.6 |
| 20260505055201 | 68 | 174 | 2.6 | 5.2 | 0.00 | 0.00 | 0.00 | 81 | 1010.6 |
| 20260505054700 | 68 | 166 | 6.1 | 7.8 | 0.00 | 0.00 | 0.00 | 81 | 1010.7 |
| 20260505054200 | 68 | 164 | 5.2 | 7.0 | 0.00 | 0.00 | 0.00 | 81 | 1010.7 |
| 20260505053700 | 68 | 167 | 4.3 | 7.8 | 0.00 | 0.00 | 0.00 | 80 | 1010.6 |
| 20260505053200 | 68 | 180 | 6.1 | 8.7 | 0.00 | 0.00 | 0.00 | 80 | 1010.7 |
| 20260505052701 | 68 | 169 | 2.6 | 5.2 | 0.00 | 0.00 | 0.00 | 80 | 1010.8 |
| 20260505052201 | 68 | 174 | 4.3 | 7.0 | 0.00 | 0.00 | 0.00 | 80 | 1010.8 |
| 20260505051710 | 69 | 189 | 4.3 | 7.8 | 0.00 | 0.00 | 0.00 | 79 | 1010.9 |
| 20260505051200 | 69 | 173 | 1.7 | 6.1 | 0.00 | 0.00 | 0.00 | 79 | 1010.9 |
| 20260505050701 | 69 | 168 | 6.1 | 8.7 | 0.00 | 0.00 | 0.00 | 79 | 1010.8 |
| 20260505050200 | 69 | 164 | 1.7 | 3.5 | 0.00 | 0.00 | 0.00 | 79 | 1011.0 |
| 20260505041700 | 69 | 159 | 2.6 | 3.5 | 0.00 | 0.00 | 0.00 | 78 | 1011.1 |
| 20260505041205 | 69 | 172 | 2.6 | 3.5 | 0.00 | 0.00 | 0.00 | 78 | 1011.2 |
| 20260505040700 | 69 | 206 | 1.7 | 2.6 | 0.00 | 0.00 | 0.00 | 77 | 1011.1 |
| 20260505040200 | 69 | 207 | 2.6 | 4.3 | 0.00 | 0.00 | 0.00 | 77 | 1011.0 |
| 20260505035700 | 69 | 167 | 3.5 | 4.3 | 0.00 | 0.00 | 0.00 | 77 | 1011.0 |
| 20260505035201 | 69 | 147 | 1.7 | 4.3 | 0.00 | 0.00 | 0.00 | 77 | 1011.0 |
| 20260505034700 | 69 | 155 | 4.3 | 7.8 | 0.00 | 0.00 | 0.00 | 76 | 1011.1 |
| 20260505034201 | 69 | 166 | 4.3 | 6.1 | 0.00 | 0.00 | 0.00 | 76 | 1011.1 |
| 20260505033701 | 69 | 173 | 2.6 | 4.3 | 0.00 | 0.00 | 0.00 | 76 | 1011.1 |
| 20260505033200 | 69 | 163 | 6.1 | 8.7 | 0.00 | 0.00 | 0.00 | 76 | 1011.1 |
| 20260505032701 | 69 | 161 | 5.2 | 7.0 | 0.00 | 0.00 | 0.00 | 75 | 1011.1 |
| 20260505032200 | 69 | 149 | 3.5 | 5.2 | 0.00 | 0.00 | 0.00 | 75 | 1011.1 |
| 20260505031700 | 70 | 150 | 2.6 | 3.5 | 0.00 | 0.00 | 0.00 | 74 | 1011.1 |
| 20260505031200 | 70 | 163 | 5.2 | 6.1 | 0.00 | 0.00 | 0.00 | 74 | 1011.1 |
| 20260505030700 | 70 | 158 | 4.3 | 6.1 | 0.00 | 0.00 | 0.00 | 73 | 1011.2 |
| 20260505030201 | 70 | 170 | 5.2 | 7.8 | 0.00 | 0.00 | 0.00 | 73 | 1011.2 |
| 20260505025700 | 71 | 155 | 3.5 | 5.2 | 0.00 | 0.00 | 0.00 | 72 | 1011.2 |
| 20260505025201 | 71 | 176 | 0.9 | 3.5 | 0.00 | 0.00 | 0.00 | 72 | 1011.2 |
| 20260505024700 | 71 | 230 | 1.7 | 4.3 | 0.00 | 0.00 | 0.00 | 72 | 1011.1 |
| 20260505024200 | 71 | 191 | 1.7 | 3.5 | 0.00 | 0.00 | 0.00 | 71 | 1011.2 |
| 20260505023700 | 71 | 166 | 2.6 | 11.3 | 0.00 | 0.00 | 0.00 | 71 | 1011.0 |
| 20260505023201 | 71 | 169 | 1.7 | 3.5 | 0.00 | 0.00 | 0.00 | 71 | 1011.0 |
| 20260505022702 | 71 | 168 | 3.5 | 4.3 | 0.00 | 0.00 | 0.00 | 70 | 1010.9 |
| 20260505022200 | 72 | 194 | 3.5 | 4.3 | 0.00 | 0.00 | 0.00 | 70 | 1010.8 |
| 20260505021701 | 72 | 184 | 2.6 | 4.3 | 0.00 | 0.00 | 0.00 | 70 | 1010.7 |
| 20260505021200 | 72 | 163 | 2.6 | 4.3 | 0.00 | 0.00 | 0.00 | 69 | 1010.6 |
| 20260505020702 | 72 | 171 | 3.5 | 5.2 | 0.00 | 0.00 | 0.00 | 69 | 1010.5 |
| 20260505020201 | 72 | 191 | 0.9 | 2.6 | 0.00 | 0.00 | 0.00 | 68 | 1010.6 |
| 20260505015700 | 73 | 166 | 4.3 | 7.8 | 0.00 | 0.00 | 0.00 | 68 | 1010.4 |
| 20260505015200 | 73 | 168 | 4.3 | 7.8 | 0.00 | 0.00 | 0.00 | 68 | 1010.4 |
| 20260505014700 | 73 | 166 | 5.2 | 7.0 | 0.00 | 0.00 | 0.00 | 67 | 1010.3 |
| 20260505014200 | 73 | 172 | 3.5 | 7.0 | 0.00 | 0.00 | 0.00 | 67 | 1010.3 |
| 20260505013700 | 73 | 207 | 2.6 | 5.2 | 0.00 | 0.00 | 0.00 | 67 | 1010.3 |
| 20260505013200 | 73 | 160 | 4.3 | 6.1 | 0.00 | 0.00 | 0.00 | 67 | 1010.3 |
| 20260505012700 | 73 | 171 | 3.5 | 6.1 | 0.00 | 0.00 | 0.00 | 66 | 1010.2 |
| 20260505012200 | 73 | 167 | 2.6 | 5.2 | 0.00 | 0.00 | 0.00 | 66 | 1010.1 |
| 20260505011700 | 74 | 169 | 5.2 | 7.8 | 0.00 | 0.00 | 0.00 | 66 | 1010.3 |
| 20260505011201 | 74 | 160 | 2.6 | 4.3 | 0.00 | 0.00 | 0.00 | 66 | 1010.2 |
| 20260505010700 | 74 | 166 | 4.3 | 6.1 | 0.00 | 0.00 | 0.00 | 66 | 1010.4 |
| 20260505010201 | 74 | 175 | 2.6 | 5.2 | 0.00 | 0.00 | 0.00 | 65 | 1010.4 |
| 20260505005700 | 74 | 163 | 1.7 | 3.5 | 0.00 | 0.00 | 0.00 | 65 | 1010.4 |
| 20260505005200 | 74 | 157 | 2.6 | 3.5 | 0.00 | 0.00 | 0.00 | 64 | 1010.3 |
| 20260505004700 | 74 | 177 | 2.6 | 6.1 | 0.00 | 0.00 | 0.00 | 64 | 1010.4 |
| 20260505004200 | 75 | 155 | 3.5 | 5.2 | 0.00 | 0.00 | 0.00 | 64 | 1010.3 |
| 20260505003701 | 75 | 158 | 4.3 | 6.1 | 0.00 | 0.00 | 0.00 | 64 | 1010.4 |
| 20260505003200 | 75 | 153 | 5.2 | 7.8 | 0.00 | 0.00 | 0.00 | 63 | 1010.4 |
| 20260505002700 | 75 | 170 | 3.5 | 6.1 | 0.00 | 0.00 | 0.00 | 63 | 1010.5 |
| 20260505002200 | 75 | 161 | 2.6 | 4.3 | 0.00 | 0.00 | 0.00 | 63 | 1010.4 |
| 20260505001701 | 76 | 150 | 4.3 | 7.0 | 0.00 | 0.00 | 0.00 | 62 | 1010.5 |
| 20260505001200 | 76 | 201 | 2.6 | 4.3 | 0.00 | 0.00 | 0.00 | 62 | 1010.6 |
| 20260505000700 | 76 | 163 | 2.6 | 3.5 | 0.00 | 0.00 | 0.00 | 62 | 1010.7 |
| 20260505000204 | 77 | 168 | 3.5 | 5.2 | 0.00 | 0.00 | 0.00 | 61 | 1010.7 |
| 20260504235701 | 77 | 177 | 3.5 | 5.2 | 0.00 | 0.00 | 0.00 | 60 | 1010.8 |
| 20260504235200 | 77 | 184 | 1.7 | 3.5 | 0.00 | 0.00 | 0.00 | 60 | 1010.8 |
| 20260504234704 | 77 | 154 | 3.5 | 6.1 | 0.00 | 0.00 | 0.00 | 59 | 1010.7 |
| 20260504234202 | 77 | 177 | 1.7 | 3.5 | 0.00 | 0.00 | 0.00 | 60 | 1010.7 |
| 20260504233700 | 77 | 172 | 1.7 | 3.5 | 0.00 | 0.00 | 0.00 | 60 | 1010.7 |
| 20260504233200 | 77 | 190 | 2.6 | 3.5 | 0.00 | 0.00 | 0.00 | 58 | 1010.8 |
| 20260504232700 | 77 | 173 | 4.3 | 5.2 | 0.00 | 0.00 | 0.00 | 58 | 1010.9 |
| 20260504232201 | 77 | 182 | 3.5 | 5.2 | 0.00 | 0.00 | 0.00 | 58 | 1011.0 |
| 20260504231701 | 77 | 213 | 1.7 | 3.5 | 0.00 | 0.00 | 0.00 | 59 | 1011.0 |
| 20260504231200 | 77 | 175 | 1.7 | 5.2 | 0.00 | 0.00 | 0.00 | 58 | 1011.0 |
| 20260504230700 | 78 | 177 | 5.2 | 7.8 | 0.00 | 0.00 | 0.00 | 57 | 1011.0 |
| 20260504230200 | 78 | 182 | 6.1 | 8.7 | 0.00 | 0.00 | 0.00 | 56 | 1011.2 |
| 20260504225700 | 78 | 195 | 3.5 | 6.1 | 0.00 | 0.00 | 0.00 | 57 | 1011.3 |
| 20260504225200 | 78 | 173 | 7.0 | 9.6 | 0.00 | 0.00 | 0.00 | 57 | 1011.4 |
| 20260504224700 | 78 | 177 | 5.2 | 8.7 | 0.00 | 0.00 | 0.00 | 56 | 1011.4 |
| 20260504224200 | 78 | 138 | 4.3 | 8.7 | 0.00 | 0.00 | 0.00 | 57 | 1011.3 |
| 20260504223701 | 78 | 188 | 5.2 | 8.7 | 0.00 | 0.00 | 0.00 | 57 | 1011.3 |
| 20260504223201 | 78 | 179 | 1.7 | 5.2 | 0.00 | 0.00 | 0.00 | 57 | 1011.5 |
| 20260504222700 | 78 | 176 | 3.5 | 6.1 | 0.00 | 0.00 | 0.00 | 57 | 1011.6 |
| 20260504222201 | 78 | 188 | 2.6 | 5.2 | 0.00 | 0.00 | 0.00 | 57 | 1011.7 |
| 20260504221700 | 78 | 181 | 3.5 | 7.8 | 0.00 | 0.00 | 0.00 | 57 | 1011.6 |
| 20260504221200 | 78 | 179 | 7.0 | 11.3 | 0.00 | 0.00 | 0.00 | 56 | 1011.6 |
| 20260504220701 | 78 | 175 | 3.5 | 6.1 | 0.00 | 0.00 | 0.00 | 56 | 1011.8 |
| 20260504220200 | 78 | 158 | 5.2 | 7.8 | 0.00 | 0.00 | 0.00 | 56 | 1011.9 |
| 20260504215700 | 78 | 172 | 7.8 | 10.4 | 0.00 | 0.00 | 0.00 | 53 | 1011.9 |
| 20260504215202 | 78 | 166 | 6.1 | 9.6 | 0.00 | 0.00 | 0.00 | 54 | 1012.1 |
| 20260504214700 | 78 | 179 | 5.2 | 7.8 | 0.00 | 0.00 | 0.00 | 54 | 1012.1 |
| 20260504214200 | 78 | 234 | 4.3 | 7.0 | 0.00 | 0.00 | 0.00 | 54 | 1012.1 |
| 20260504213700 | 78 | 191 | 4.3 | 7.8 | 0.00 | 0.00 | 0.00 | 53 | 1012.2 |
| 20260504213201 | 78 | 208 | 2.6 | 7.0 | 0.00 | 0.00 | 0.00 | 54 | 1012.3 |
| 20260504212700 | 78 | 214 | 4.3 | 7.0 | 0.00 | 0.00 | 0.00 | 54 | 1012.4 |
| 20260504212204 | 78 | 234 | 3.5 | 4.3 | 0.00 | 0.00 | 0.00 | 55 | 1012.5 |
| 20260504211701 | 78 | 179 | 5.2 | 8.7 | 0.00 | 0.00 | 0.00 | 53 | 1012.5 |
| 20260504211200 | 78 | 179 | 3.5 | 5.2 | 0.00 | 0.00 | 0.00 | 54 | 1012.6 |
| 20260504210700 | 78 | 217 | 2.6 | 5.2 | 0.00 | 0.00 | 0.00 | 54 | 1012.7 |
| 20260504210201 | 78 | 202 | 2.6 | 5.2 | 0.00 | 0.00 | 0.00 | 54 | 1012.8 |
| 20260504205700 | 79 | 231 | 5.2 | 7.8 | 0.00 | 0.00 | 0.00 | 54 | 1012.9 |
| 20260504205203 | 79 | 188 | 5.2 | 10.4 | 0.00 | 0.00 | 0.00 | 53 | 1012.8 |
| 20260504204700 | 78 | 199 | 4.3 | 9.6 | 0.00 | 0.00 | 0.00 | 53 | 1012.9 |
| 20260504204200 | 78 | 216 | 3.5 | 4.3 | 0.00 | 0.00 | 0.00 | 53 | 1012.9 |
| 20260504203700 | 78 | 178 | 5.2 | 7.8 | 0.00 | 0.00 | 0.00 | 52 | 1013.0 |
| 20260504203200 | 78 | 200 | 3.5 | 8.7 | 0.00 | 0.00 | 0.00 | 51 | 1013.2 |
| 20260504202700 | 78 | 169 | 7.0 | 11.3 | 0.00 | 0.00 | 0.00 | 51 | 1013.2 |
| 20260504202200 | 78 | 180 | 6.1 | 11.3 | 0.00 | 0.00 | 0.00 | 51 | 1013.3 |
| 20260504201700 | 77 | 233 | 4.3 | 7.8 | 0.00 | 0.00 | 0.00 | 54 | 1013.4 |
| 20260504201200 | 77 | 190 | 3.5 | 6.1 | 0.00 | 0.00 | 0.00 | 53 | 1013.6 |
| 20260504200700 | 77 | 157 | 4.3 | 7.8 | 0.00 | 0.00 | 0.00 | 52 | 1013.5 |
| 20260504200202 | 77 | 173 | 6.1 | 10.4 | 0.00 | 0.00 | 0.00 | 52 | 1013.6 |
| 20260504195700 | 77 | 220 | 6.1 | 10.4 | 0.00 | 0.00 | 0.00 | 52 | 1013.7 |
| 20260504195200 | 77 | 232 | 6.1 | 9.6 | 0.00 | 0.00 | 0.00 | 51 | 1013.8 |
| 20260504194701 | 77 | 166 | 3.5 | 7.8 | 0.00 | 0.00 | 0.00 | 52 | 1013.9 |
| 20260504194201 | 77 | 228 | 7.0 | 9.6 | 0.00 | 0.00 | 0.00 | 51 | 1013.9 |
| 20260504193701 | 77 | 226 | 3.5 | 6.1 | 0.00 | 0.00 | 0.00 | 52 | 1014.1 |
| 20260504193201 | 77 | 214 | 4.3 | 7.8 | 0.00 | 0.00 | 0.00 | 51 | 1014.2 |
| 20260504192700 | 77 | 212 | 3.5 | 7.8 | 0.00 | 0.00 | 0.00 | 51 | 1014.2 |
| 20260504192200 | 76 | 226 | 4.3 | 7.8 | 0.00 | 0.00 | 0.00 | 50 | 1014.2 |
| 20260504191700 | 77 | 175 | 5.2 | 7.8 | 0.00 | 0.00 | 0.00 | 50 | 1014.4 |
| 20260504191201 | 76 | 164 | 5.2 | 7.0 | 0.00 | 0.00 | 0.00 | 51 | 1014.5 |
| 20260504190700 | 76 | 177 | 4.3 | 11.3 | 0.00 | 0.00 | 0.00 | 51 | 1014.4 |
| 20260504190200 | 76 | 228 | 4.3 | 7.0 | 0.00 | 0.00 | 0.00 | 48 | 1014.6 |
| 20260504185700 | 76 | 238 | 4.3 | 6.1 | 0.00 | 0.00 | 0.00 | 49 | 1014.8 |
| 20260504185200 | 76 | 196 | 5.2 | 7.8 | 0.00 | 0.00 | 0.00 | 51 | 1014.7 |
| 20260504184701 | 76 | 213 | 4.3 | 7.0 | 0.00 | 0.00 | 0.00 | 51 | 1014.9 |
| 20260504184207 | 76 | 179 | 2.6 | 6.1 | 0.00 | 0.00 | 0.00 | 54 | 1014.9 |
| 20260504183701 | 75 | 175 | 3.5 | 5.2 | 0.00 | 0.00 | 0.00 | 53 | 1014.9 |
| 20260504183200 | 75 | 178 | 5.2 | 11.3 | 0.00 | 0.00 | 0.00 | 52 | 1014.9 |
| 20260504182700 | 75 | 253 | 6.1 | 10.4 | 0.00 | 0.00 | 0.00 | 52 | 1015.0 |
| 20260504182200 | 75 | 146 | 3.5 | 6.1 | 0.00 | 0.00 | 0.00 | 52 | 1015.1 |
| 20260504181700 | 75 | 173 | 2.6 | 4.3 | 0.00 | 0.00 | 0.00 | 52 | 1015.2 |
| 20260504181201 | 75 | 198 | 1.7 | 6.1 | 0.00 | 0.00 | 0.00 | 53 | 1015.4 |
| 20260504180703 | 75 | 188 | 4.3 | 7.0 | 0.00 | 0.00 | 0.00 | 54 | 1015.5 |
| 20260504180201 | 75 | 185 | 3.5 | 8.7 | 0.00 | 0.00 | 0.00 | 52 | 1015.6 |
| 20260504175700 | 74 | 173 | 1.7 | 4.3 | 0.00 | 0.00 | 0.00 | 53 | 1015.6 |
| 20260504175201 | 74 | 182 | 6.1 | 12.2 | 0.00 | 0.00 | 0.00 | 52 | 1015.6 |
| 20260504174702 | 74 | 157 | 6.1 | 7.8 | 0.00 | 0.00 | 0.00 | 54 | 1015.7 |
| 20260504174201 | 74 | 193 | 4.3 | 7.8 | 0.00 | 0.00 | 0.00 | 58 | 1015.7 |
| 20260504173700 | 74 | 212 | 2.6 | 5.2 | 0.00 | 0.00 | 0.00 | 55 | 1015.8 |
| 20260504173201 | 74 | 153 | 7.0 | 10.4 | 0.00 | 0.00 | 0.00 | 53 | 1015.8 |
| 20260504172701 | 74 | 159 | 7.0 | 9.6 | 0.00 | 0.00 | 0.00 | 52 | 1015.8 |
| 20260504172201 | 74 | 142 | 7.8 | 11.3 | 0.00 | 0.00 | 0.00 | 52 | 1015.9 |
| 20260504171700 | 73 | 145 | 2.6 | 5.2 | 0.00 | 0.00 | 0.00 | 57 | 1016.1 |
| 20260504171200 | 74 | 164 | 8.7 | 13.0 | 0.00 | 0.00 | 0.00 | 54 | 1016.1 |
| 20260504170702 | 73 | 161 | 4.3 | 7.0 | 0.00 | 0.00 | 0.00 | 55 | 1016.1 |
| 20260504170200 | 73 | 237 | 5.2 | 9.6 | 0.00 | 0.00 | 0.00 | 55 | 1016.3 |
| 20260504160200 | 71 | 188 | 3.5 | 7.8 | 0.00 | 0.00 | 0.00 | 56 | 1016.7 |
| 20260504150700 | 69 | 215 | 5.2 | 7.8 | 0.00 | 0.00 | 0.00 | 61 | 1016.8 |
| 20260504150201 | 69 | 186 | 5.2 | 9.6 | 0.00 | 0.00 | 0.00 | 61 | 1017.0 |
| 20260504141201 | 66 | 222 | 2.6 | 5.2 | 0.00 | 0.00 | 0.00 | 68 | 1017.1 |
| 20260504140700 | 66 | 206 | 3.5 | 5.2 | 0.00 | 0.00 | 0.00 | 70 | 1017.0 |
| 20260504140202 | 66 | 209 | 3.5 | 7.0 | 0.00 | 0.00 | 0.00 | 69 | 1017.0 |
| 20260504130700 | 62 | 168 | 0.0 | 1.7 | 0.00 | 0.00 | 0.00 | 78 | 1017.0 |
| 20260504130201 | 61 | 240 | 0.9 | 2.6 | 0.00 | 0.00 | 0.00 | 79 | 1016.9 |
| 20260504120201 | 53 | 0 | 0.0 | 0.0 | 0.00 | 0.00 | 0.00 | 93 | 1016.2 |
| 20260504110701 | 52 | 0 | 0.0 | 0.0 | 0.00 | 0.00 | 0.00 | 91 | 1016.1 |
| 20260504110200 | 52 | 0 | 0.0 | 0.0 | 0.00 | 0.00 | 0.00 | 91 | 1016.1 |
| 20260504100200 | 54 | 0 | 0.0 | 0.0 | 0.00 | 0.00 | 0.00 | 89 | 1016.4 |
| 20260504081701 | 55 | 0 | 0.0 | 0.0 | 0.00 | 0.00 | 0.00 | 87 | 1016.5 |
| 20260504081200 | 56 | 0 | 0.0 | 0.0 | 0.00 | 0.00 | 0.00 | 87 | 1016.6 |
| 20260504080700 | 56 | 0 | 0.0 | 0.0 | 0.00 | 0.00 | 0.00 | 87 | 1016.6 |
| 20260504080200 | 56 | 0 | 0.0 | 0.0 | 0.00 | 0.00 | 0.00 | 86 | 1016.6 |